Temperature
13 13 13 13 13 13 13 12 12 12 12 12 12 12 12 12 12 12 11 11 11 11 11 11 11 11 11 11 11 11 11 11 11 11 11 11 11 11
13 13 13 13 12 12 12 12 12 12 12 12 12 12 12 12 12 11 11 11 11 11 11 11 11 11 11 11 11 11 11 11 11 11 11 10 11 11
12 12 12 12 12 12 12 12 12 12 12 11 11 11 11 11 11 11 11 11 11 11 11 11 11 11 11 11 11 11 11 11 11 11 10 10 10 10
12 12 12 12 12 12 12 12 12 11 11 11 11 11 11 11 11 11 11 11 11 11 11 11 11 11 11 11 11 11 11 11 11 10 10 10 10 10
12 12 12 12 12 12 11 11 11 11 11 11 11 11 11 11 11 11 11 11 11 11 11 11 11 11 11 11 10 10 10 10 10 10 10 10 10 10
11 11 11 11 11 11 11 11 11 11 11 11 11 11 11 11 11 11 11 11 11 11 11 11 11 11 11 11 10 10 10 10 10 10 10 10 10 10
11 11 11 11 11 11 11 11 11 11 11 11 11 11 11 11 11 11 11 11 11 11 11 11 11 11 11 11 11 10 10 10 10 10 10 10 10 10
11 11 11 11 11 11 11 11 11 10 10 10 10 10 10 10 10 10 10 10 10 10 11 11 10 11 11 11 10 10 10 10 10 10 10 10 10 9
11 11 10 10 10 10 10 10 10 10 10 10 10 10 10 10 10 10 10 10 10 10 10 10 10 10 10 10 10 10 10 10 10 10 10 9 9 9
10 10 10 10 10 10 10 10 10 10 10 10 10 10 10 10 10 10 10 10 10 10 10 10 10 10 10 10 10 10 10 10 10 10 9 9 9 9
10 10 10 10 10 10 10 10 10 10 10 9 9 9 9 9 9 9 9 9 9 10 9 9 10 10 10 10 10 10 10 9 9 9 9 9 9 9
9 9 9 9 10 10 10 10 10 10 9 9 9 9 9 9 9 9 9 9 9 9 9 9 9 9 9 10 9 9 9 9 9 9 9 9 9 9
9 9 9 9 9 9 9 9 9 9 9 9 9 9 9 9 9 9 9 9 9 9 9 9 9 9 8 9 9 9 9 9 9 9 9 9 8 8
8 8 8 8 8 8 8 8 9 8 8 8 8 9 9 9 8 8 8 8 8 8 8 8 8 8 8 8 8 8 8 8 8 8 8 8 8 8
8 8 8 8 8 8 8 8 8 8 8 8 8 8 8 8 8 8 8 8 8 8 8 8 8 8 8 8 8 8 8 8 8 8 8 8 8 8
7 7 7 7 7 7 7 7 7 8 8 8 8 8 8 8 8 8 8 8 8 8 8 8 8 7 8 7 7 7 7 7 7 7 7 7 8 8
7 7 7 7 7 7 7 7 7 7 7 7 7 7 7 7 7 7 7 7 7 7 7 7 7 7 7 7 7 7 7 7 7 7 7 7 7 7
6 6 6 6 6 6 6 7 7 7 7 7 7 7 7 7 7 7 7 7 6 7 7 7 7 7 7 6 6 6 6 6 6 6 6 6 7 7
5 6 5 5 5 5 6 6 6 6 6 6 6 6 6 6 6 6 6 6 6 6 6 6 6 6 6 6 6 6 6 6 6 6 6 6 6 6
5 5 5 5 5 5 5 5 5 5 5 5 6 6 6 6 6 6 6 6 6 6 6 5 5 5 5 5 5 6 5 5 5 5 5 5 5 6
4 4 4 4 4 4 4 4 5 5 5 5 5 5 5 5 5 5 5 5 5 5 5 5 5 5 5 5 5 5 5 5 5 5 5 5 5 5
4 4 4 4 4 4 4 4 4 4 4 4 4 4 4 4 5 5 4 4 4 4 4 4 4 4 4 4 4 4 5 4 4 4 4 4 4 4
3 3 3 3 3 3 3 3 3 3 3 3 3 4 3 4 4 4 4 4 4 4 4 4 4 4 4 4 4 4 4 4 4 4 4 4 3 3
Wind_Speed
2 2 2 2 2 2 3 4 4 2 2 2 2 1 1 1 1 0 1 1 2 2 1 1 2 1 1 1 1 0 1 1 1 2 2 2 2 3
1 2 1 1 1 2 3 3 3 4 2 2 2 1 1 1 2 2 2 2 3 2 1 2 2 2 1 1 1 1 1 1 1 1 1 1 1 1
1 2 2 2 2 2 2 3 3 3 3 2 1 0 1 1 1 1 2 2 3 2 1 1 2 2 2 1 1 2 1 1 1 2 1 1 1 1
2 2 2 2 2 2 3 3 3 3 4 2 1 1 1 1 0 0 0 1 2 3 2 2 3 3 3 3 3 3 2 2 2 2 2 2 2 3
3 4 3 3 2 2 3 3 3 2 2 2 2 1 0 0 1 1 1 1 2 2 3 3 4 4 4 5 5 4 4 4 4 4 4 4 4 3
3 4 4 5 5 4 3 4 3 3 3 2 2 1 1 0 1 0 1 1 1 1 2 3 3 4 4 5 6 6 6 6 6 6 6 6 5 5
3 3 4 5 5 5 4 4 4 3 3 3 2 1 1 1 2 1 2 1 1 0 1 1 2 2 4 5 6 7 7 7 7 7 6 6 6 6
3 3 3 4 4 5 5 5 6 5 5 4 3 3 4 3 2 2 2 1 2 1 1 2 1 2 3 5 6 7 7 7 7 7 7 7 7 7
2 3 3 3 3 3 4 4 4 5 7 6 5 6 5 6 4 3 4 3 3 2 2 2 1 3 4 5 6 7 7 7 7 7 7 7 8 8
3 3 3 3 3 4 3 2 3 4 5 5 6 6 6 5 6 5 5 3 1 1 2 2 2 3 3 4 6 6 6 7 7 7 7 7 8 8
2 2 3 3 4 4 4 4 3 3 4 5 6 6 7 7 6 4 3 2 2 2 2 2 2 2 2 2 5 5 6 6 7 7 7 7 7 8
2 2 3 4 4 4 5 5 5 5 3 2 2 4 3 4 7 7 6 5 2 3 3 3 2 1 2 2 2 3 4 5 7 7 7 7 7 5
2 2 3 4 4 5 5 5 7 5 4 3 3 2 2 2 3 4 5 5 5 4 4 4 3 2 2 2 2 2 2 3 4 5 6 7 8 7
3 3 3 4 4 5 5 5 6 4 2 2 2 3 3 3 3 4 5 6 6 5 6 6 4 4 3 2 2 2 2 2 3 3 4 5 6 9
3 3 3 4 3 3 5 6 5 3 3 3 4 5 4 4 3 2 2 3 3 4 6 6 4 4 4 4 3 2 2 2 2 3 3 3 3 4
2 3 3 2 2 2 3 3 3 3 4 5 4 4 2 2 3 2 2 2 2 2 2 6 6 5 4 4 4 3 3 2 2 3 3 3 4 5
1 0 0 1 1 2 2 1 1 2 3 3 4 3 3 3 3 2 2 2 3 3 2 1 2 4 4 4 4 4 4 3 3 3 2 3 4 5
1 1 1 2 2 2 2 2 2 2 3 3 3 3 4 4 3 2 3 3 4 4 3 2 1 1 0 2 5 5 4 4 3 3 3 3 4 4
1 2 2 2 2 2 2 2 2 3 2 2 3 3 3 3 3 3 3 3 4 4 3 3 3 3 4 5 3 5 4 3 2 2 4 4 5 5
1 2 2 2 2 2 2 2 2 2 1 2 2 3 3 3 3 3 4 4 4 4 3 3 3 4 6 5 3 3 5 4 3 4 3 3 4 5
2 3 3 2 2 2 2 2 2 2 2 2 2 3 3 3 4 4 4 4 4 3 4 4 4 4 2 1 1 3 3 5 6 4 3 3 3 2
3 3 3 3 3 3 2 2 2 2 2 2 3 2 2 3 4 4 4 4 4 4 4 3 2 1 2 3 5 4 3 3 4 5 5 5 3 4
4 3 3 3 3 3 2 2 3 3 3 3 3 3 3 3 3 3 4 4 4 4 3 3 2 2 3 4 4 4 4 3 2 2 3 5 7 7
Wind_Direction
209 193 184 189 177 171 157 155 154 173 261 275 281 300 259 241 262 259 275 318 326 316 261 165 145 120 75 51 56 94 100 80 66 71 83 93 88 96
189 160 175 184 173 169 168 161 153 160 203 250 236 268 262 259 260 233 253 303 306 308 248 172 170 172 152 112 82 109 111 147 181 151 145 145 109 105
175 169 196 167 154 161 154 151 154 148 174 255 232 239 205 269 310 231 251 264 284 292 252 200 191 194 206 203 177 157 156 166 192 191 192 188 201 200
197 179 204 169 161 162 158 165 172 169 165 200 223 209 225 263 338 23 341 282 270 281 262 243 232 227 228 230 215 204 202 205 213 221 223 228 236 231
198 193 202 171 180 180 172 178 183 173 161 171 210 210 250 15 39 18 16 352 290 268 262 254 249 243 239 237 227 225 224 226 231 237 242 241 244 241
206 203 200 190 195 190 189 190 176 163 155 162 193 216 235 290 103 45 317 305 293 276 273 262 253 253 250 244 235 234 234 235 238 240 241 241 239 237
215 218 213 203 202 195 196 189 174 171 168 171 188 185 212 204 222 211 226 280 283 260 345 287 252 256 258 252 242 239 236 235 233 233 235 237 235 236
222 228 224 216 213 210 207 190 180 180 186 185 194 204 224 216 200 195 181 142 275 258 189 270 217 253 256 246 248 246 240 233 230 231 230 230 232 234
224 227 229 219 210 209 221 214 203 200 192 188 194 212 215 211 190 194 199 202 220 213 167 243 247 261 265 262 257 248 241 233 227 228 229 229 230 232
227 219 222 234 218 199 194 204 221 221 214 206 208 218 217 203 194 199 201 200 239 188 158 220 243 253 279 261 263 253 244 236 230 228 230 230 229 229
248 239 227 232 232 200 183 199 224 244 236 225 229 231 230 216 186 158 158 165 228 234 188 202 239 265 283 277 268 261 245 239 235 233 233 231 232 229
269 269 249 243 246 222 198 198 217 233 230 243 258 263 251 222 199 189 188 187 198 229 202 190 206 196 287 283 285 270 252 253 251 246 240 234 230 220
242 257 263 268 262 250 228 214 226 223 212 218 233 247 246 225 217 210 200 195 197 220 195 177 189 190 211 271 292 270 246 255 254 255 253 245 233 218
236 247 257 271 270 262 244 235 231 220 202 206 226 238 238 236 234 228 222 218 216 219 194 180 188 190 191 225 261 276 257 248 241 250 249 254 243 235
254 260 266 269 264 264 247 239 226 214 201 214 229 237 235 233 230 230 232 222 226 234 211 201 196 194 194 211 226 237 256 259 239 241 243 239 236 229
278 285 287 290 277 271 275 256 231 216 208 222 231 236 227 216 216 210 220 212 217 258 236 216 207 192 206 223 215 231 224 227 241 236 242 251 248 235
270 314 351 343 315 305 300 293 275 245 234 230 226 228 224 220 227 214 206 202 215 232 248 256 220 214 216 202 216 231 233 239 238 223 226 257 259 249
145 209 244 245 248 257 263 277 267 254 248 235 227 221 220 222 225 215 201 204 220 233 236 227 185 153 286 264 226 226 230 238 242 222 216 238 264 261
196 240 245 245 249 255 254 254 265 266 256 240 228 230 223 220 219 216 211 214 224 232 234 215 196 197 221 249 251 220 220 233 222 228 229 231 251 264
243 246 255 258 254 255 256 256 263 271 266 252 240 231 220 217 221 223 221 223 224 226 231 224 214 215 225 237 241 252 228 221 217 230 238 244 265 282
253 256 256 258 261 260 264 262 257 258 263 259 258 247 231 221 226 226 222 224 221 223 229 238 243 245 243 193 248 266 261 240 228 228 222 233 269 273
257 257 258 255 253 252 259 265 266 265 266 262 261 260 250 235 230 227 222 224 227 229 237 247 245 217 218 232 246 257 271 283 269 253 234 219 215 225
251 256 258 257 256 252 252 254 258 263 260 261 264 256 249 252 248 239 235 230 229 232 237 244 242 232 240 243 250 258 264 272 276 265 265 259 249 251
Height
1531 1531 1532 1532 1532 1533 1533 1534 1535 1534 1535 1535 1535 1535 1535 1534 1534 1534 1533 1532 1531 1529 1528 1529 1530 1532 1533 1534 1535 1535 1536 1536 1536 1536 1536 1537 1538 1538
1529 1529 1530 1530 1531 1531 1531 1532 1533 1533 1533 1534 1534 1534 1534 1534 1533 1533 1532 1531 1529 1527 1527 1527 1529 1530 1532 1533 1534 1534 1534 1535 1535 1535 1535 1536 1536 1537
1526 1527 1527 1528 1528 1529 1529 1530 1530 1531 1531 1532 1532 1533 1533 1532 1532 1532 1531 1530 1529 1528 1527 1527 1528 1530 1531 1532 1532 1533 1533 1534 1534 1534 1534 1535 1535 1536
1524 1524 1525 1525 1526 1527 1527 1528 1528 1529 1529 1530 1531 1531 1531 1531 1530 1530 1530 1529 1528 1528 1527 1527 1528 1529 1530 1530 1531 1531 1532 1532 1532 1533 1533 1533 1534 1534
1521 1522 1522 1523 1523 1524 1524 1525 1526 1527 1527 1528 1528 1529 1529 1529 1528 1528 1528 1528 1527 1527 1527 1527 1527 1528 1528 1529 1529 1530 1530 1530 1531 1531 1531 1531 1532 1532
1518 1519 1520 1520 1520 1521 1522 1522 1523 1524 1524 1525 1525 1526 1526 1526 1526 1526 1526 1526 1526 1526 1525 1526 1526 1526 1526 1527 1527 1527 1528 1528 1528 1529 1529 1529 1530 1530
1515 1515 1516 1517 1518 1518 1519 1519 1520 1520 1521 1521 1522 1523 1523 1523 1523 1523 1523 1523 1523 1523 1523 1523 1524 1524 1524 1524 1524 1525 1525 1525 1526 1526 1526 1526 1527 1527
1511 1512 1513 1513 1514 1515 1515 1516 1517 1517 1517 1518 1518 1519 1519 1520 1521 1521 1520 1520 1520 1521 1520 1520 1521 1521 1521 1521 1522 1522 1522 1522 1522 1523 1523 1523 1524 1524
1508 1508 1509 1509 1510 1511 1511 1512 1513 1513 1514 1515 1515 1515 1516 1517 1517 1517 1517 1517 1517 1518 1517 1517 1518 1517 1518 1518 1518 1518 1518 1518 1519 1519 1520 1520 1521 1521
1504 1504 1505 1505 1506 1507 1507 1508 1508 1509 1510 1511 1511 1512 1513 1513 1513 1514 1514 1514 1514 1514 1514 1513 1514 1514 1515 1515 1514 1515 1515 1515 1515 1516 1516 1517 1517 1517
1500 1500 1501 1501 1502 1502 1503 1503 1504 1505 1506 1506 1507 1508 1508 1509 1509 1510 1510 1510 1509 1510 1510 1510 1510 1510 1511 1511 1511 1511 1511 1511 1512 1512 1512 1513 1513 1513
1495 1496 1496 1497 1497 1498 1498 1499 1499 1500 1501 1502 1502 1503 1503 1504 1504 1505 1505 1505 1505 1505 1506 1506 1506 1507 1506 1507 1507 1507 1507 1508 1508 1508 1508 1509 1509 1509
1491 1491 1492 1492 1492 1493 1494 1494 1494 1496 1496 1497 1497 1498 1498 1499 1499 1500 1500 1501 1501 1501 1502 1502 1502 1503 1503 1502 1503 1503 1503 1503 1504 1504 1504 1504 1504 1505
1487 1487 1487 1488 1488 1489 1489 1489 1490 1491 1491 1492 1492 1492 1493 1493 1494 1495 1495 1496 1496 1497 1498 1498 1498 1498 1499 1498 1498 1498 1499 1499 1499 1499 1499 1500 1500 1500
1483 1483 1483 1483 1484 1484 1484 1485 1485 1485 1485 1486 1486 1487 1488 1488 1489 1490 1490 1491 1491 1492 1493 1493 1494 1494 1494 1494 1494 1494 1494 1494 1494 1494 1495 1495 1495 1495
1479 1479 1479 1479 1479 1479 1479 1480 1480 1480 1480 1480 1480 1482 1483 1483 1484 1485 1485 1485 1486 1486 1488 1488 1489 1489 1489 1489 1490 1489 1490 1490 1490 1490 1490 1490 1491 1490
1475 1474 1474 1474 1474 1474 1474 1474 1474 1474 1475 1475 1475 1476 1477 1478 1478 1479 1480 1480 1480 1481 1482 1483 1484 1484 1484 1484 1484 1484 1484 1485 1485 1485 1485 1484 1485 1485
1471 1470 1470 1469 1469 1469 1469 1469 1469 1469 1469 1469 1470 1470 1471 1472 1473 1474 1474 1475 1475 1476 1477 1477 1478 1479 1479 1479 1479 1479 1479 1479 1480 1480 1480 1479 1479 1480
1467 1466 1466 1465 1465 1465 1465 1465 1465 1465 1465 1465 1465 1465 1466 1466 1467 1468 1469 1470 1470 1471 1472 1472 1473 1473 1473 1472 1473 1474 1474 1474 1474 1474 1474 1474 1474 1474
1463 1462 1462 1462 1462 1461 1461 1461 1461 1460 1460 1460 1460 1460 1461 1461 1462 1462 1463 1464 1465 1465 1466 1467 1467 1467 1468 1468 1468 1468 1469 1469 1469 1469 1469 1469 1469 1469
1459 1458 1458 1458 1458 1458 1457 1457 1457 1456 1456 1456 1456 1456 1456 1456 1457 1457 1458 1458 1459 1460 1460 1461 1461 1463 1463 1463 1463 1463 1464 1464 1464 1464 1464 1463 1462 1462
1455 1454 1454 1454 1454 1454 1453 1453 1452 1452 1452 1452 1451 1451 1451 1451 1452 1452 1452 1453 1453 1454 1455 1456 1457 1457 1458 1457 1457 1457 1457 1458 1458 1459 1459 1459 1457 1456
1450 1450 1450 1450 1450 1449 1449 1448 1448 1448 1448 1447 1447 1447 1447 1447 1447 1447 1448 1448 1449 1449 1450 1451 1451 1451 1452 1452 1452 1452 1452 1452 1452 1452 1453 1453 1453 1453